Flag for U.S.A. Weather past 2 weeks in Fort Worth, Texas, U.S.A.

Now
77 °F

Sunny.


Feels Like: 79 °F
Forecast: 70 / 88 °F
Wind: 8 mph from Northeast

Location: Meacham International Airport

Current Time: Aug 1, 2014 at 9:57:37 PM

Latest Report: Aug 1, 2014 at 8:53 PM


Visibility: 10 mi

Pressure: 29.99 "Hg

Humidity: 66%

Dew point: 65 °F

Location of Fort WorthLocation

Historic Weather in Fort Worth — Graph

°F

Fort Worth temperature yesterday

Maximum temperature yesterday: 83 °F (at 12:53 AM)
Minimum temperature yesterday: 71 °F (at 10:53 PM)
Average temperature yesterday: 76 °F

Past Weeks' High & Low Weather Summary

 TemperatureHumidityPressure
High103 °F (Jul 27, 4:53 PM)94% (Jul 18, 6:53 AM)30.18 "Hg (Jul 18, 6:53 AM)
Low65 °F (Jul 18, 6:53 AM)27% (Jul 27, 4:53 PM)29.85 "Hg (Jul 30, 7:53 PM)
Average82 °F62%29.98 "Hg
* Reported Jul 17 8:53 PM — Aug 1 8:53 PM, Fort Worth, Weather by CustomWeather, © 2014

Note: Actual official high and low records may vary slightly from our data, if they occured in-between our weather recording intervals... More about our weather records

Advertising

Fort Worth weather history for previous 24 hours

 ConditionsComfort  
Time TempWeatherWind HumidityBarometerVisibility
8:53 PM
Aug 1
77 °FSunny.8 mph66%29.99 "Hg10 mi
7:53 PM80 °FSunny.10 mph62%29.98 "Hg10 mi
6:53 PM83 °FSunny.13 mph55%29.98 "Hg10 mi
5:53 PM84 °FPartly sunny.10 mph53%29.98 "Hg10 mi
4:53 PM84 °FPartly sunny.10 mph53%29.99 "Hg10 mi
3:53 PM84 °FOvercast.7 mph53%30.01 "Hg10 mi
2:53 PM82 °FMostly cloudy.6 mph56%30.03 "Hg10 mi
1:53 PM83 °FPartly sunny.10 mph55%30.03 "Hg10 mi
12:53 PM80 °FOvercast.8 mph60%30.04 "Hg10 mi
11:53 AM76 °FMore clouds than sun.12 mph72%30.05 "Hg10 mi
10:53 AM74 °FOvercast.7 mph76%30.05 "Hg10 mi
9:53 AM73 °FCloudy.8 mph76%30.03 "Hg10 mi
9:00 AM72 °FOvercast.8 mph83%30.06 "Hg10 mi
7:53 AM71 °FOvercast.9 mph84%30.02 "Hg10 mi
6:53 AM71 °FLow clouds.10 mph84%30.00 "Hg10 mi
5:53 AM71 °FLow clouds.7 mph84%29.99 "Hg10 mi
4:53 AM71 °FOvercast.8 mph84%29.99 "Hg10 mi
3:53 AM70 °FOvercast.5 mph87%29.98 "Hg10 mi
2:53 AM70 °FMostly cloudy.8 mph84%29.99 "Hg10 mi
2:04 AM70 °FMostly cloudy.8 mph83%30.03 "Hg10 mi
1:53 AM70 °FOvercast.7 mph84%30.01 "Hg10 mi
12:53 AM71 °FOvercast.8 mph81%30.01 "Hg10 mi
11:53 PM
Jul 31
71 °FOvercast.10 mph81%30.02 "Hg10 mi
10:53 PM71 °FPartly cloudy.9 mph81%30.01 "Hg10 mi
9:53 PM72 °FMostly cloudy.12 mph78%29.98 "Hg10 mi
Weather by CustomWeather, © 2014

See weather overviewHow to use our weather pages